Other Public Products
Issued by NWS Grand Forks, ND

Home | Current Version | Previous Version | Text Only | Print | Product List | Glossary Off
Versions: 1 2 3 4 5 6 7 8 9 10 11 12 13 14 15 16 17 18 19 20 21 22 23 24 25 26 27 28 29 30 31 32 33 34 35 36 37 38 39 40 41 42 43 44 45 46 47 48 49 50

000
FPUS83 KFGF 240231
OPUFGF
PRAIRIE TO PINES WEATHER ROUNDUP
NATIONAL WEATHER SERVICE EASTERN NORTH DAKOTA/GRAND FORKS ND
800 PM CST MON JAN 23 2017

 **SATELLITE DATA USED TO AUGMENT SKY COVER AT AUTOMATED STATIONS**
 *****  WEATHER ACROSS EASTERN NORTH DAKOTA  *****

CITY           SKY/WX    TMP DP  RH WIND       PRES   REMARKS
GRAND FORKS    CLOUDY    29  22  75 W12       29.81S WCI  19
GRAND FORKS AF CLOUDY    28  22  78 NW12      29.81S WCI  17
GRAND CITY NWS NOT AVBL
BUXTON           N/A     30  27  88 W6          N/A  WCI  24
DEVILS LAKE    CLOUDY    22  19  89 W17       29.79S WCI   8
FARGO          CLOUDY    33  27  78 CALM      29.83S
WAHPETON ARPT  CLOUDY    32  28  86 W3        29.84S
$$

 *****  WEATHER ACROSS CENTRAL AND WESTERN NORTH DAKOTA  *****

CITY           SKY/WX    TMP DP  RH WIND       PRES   REMARKS
JAMESTOWN      CLOUDY    29  23  78 SW5       29.80R WCI  24
BISMARCK       CLOUDY    31  24  75 N6        29.82R
MINOT          CLOUDY    23  18  81 W10       29.79R WCI  12
MINOT AFB      CLOUDY    22  18  86 W13       29.79R WCI   9
GARRISON         N/A     23  20  88 NW6       29.80R WCI  16
WILLISTON      CLOUDY    22  18  85 W5        29.82S WCI  16
DICKINSON      CLOUDY    23  21  92 CALM      29.75R
HETTINGER      FOG       21  19  92 NE7       29.78R VSB 1/2 WCI  12
$$

 *****  OTHER OBSERVATIONS NORTHEAST NORTH DAKOTA  *****

CITY           SKY/WX    TMP DP  RH WIND       PRES   REMARKS
WALHALLA       NOT AVBL
LANGDON        NOT AVBL
CAVALIER       CLOUDY    27  23  86 SW8       29.78S WCI  18
GRAFTON        CLOUDY    27  23  86 W12       29.82S WCI  16
CANDO          NOT AVBL
FORT TOTTEN      N/A     22  21  97 W8        29.95S WCI  12
ROLLA            N/A    N/A N/A N/A MISG        N/A
RUGBY            N/A     23  19  86 W15       29.78S WCI  10
 ***** THE ABOVE OBSERVATIONS ARE NON NWS ARE NOT QUALITY
        CONTROLLED AND MAY MIS-REPORT RAIN FOR SNOW...
$$

 *****  OTHER OBSERVATIONS SOUTHEAST NORTH DAKOTA *****

CITY           SKY/WX    TMP DP  RH WIND       PRES   REMARKS
COOPERSTOWN    CLOUDY    28  25  86 W10       29.81R WCI  19
VALLEY CITY    CLOUDY    28  28 100 W6        29.83S WCI  22
OAKES          NOT AVBL
GWINNER        CLOUDY    32  28  86 CALM      29.83S
SHEYENNE NWR     N/A     30  24  78 CALM      29.95S
BUFFALO          N/A     30  21  69 CALM        N/A
WYNDMERE         N/A     32  30  93 W1          N/A
 ***** THE ABOVE OBSERVATIONS ARE NON NWS ARE NOT QUALITY
       CONTROLLED AND MAY MIS-REPORT RAIN FOR SNOW...
$$

  *****  WEATHER ACROSS NORTHERN MINNESOTA  *****

CITY           SKY/WX    TMP DP  RH WIND       PRES   REMARKS
FLAG ISLAND    CLOUDY    27  23  86 SW7       29.78R WCI  19
WARROAD        CLOUDY    28  25  86 SW7       29.79S WCI  21
ROSEAU         CLOUDY    28  23  80 SW12      29.79S WCI  18
HALLOCK        CLOUDY    28  25  86 SW8       29.79S WCI  20
THF RVR FALLS  CLOUDY    28  23  81 SW7       29.81F WCI  21
HALSTAD          N/A     30  27  88 S2          N/A
FOSSTON        CLOUDY    27  23  86 SW5       29.82S WCI  21
BAUDETTE       CLOUDY    29  23  78 SW6       29.79R WCI  23
WASKISH        CLOUDY    30  27  86 W3        29.80S
CROOKSTON      CLOUDY    30  27  86 SW7       29.82F WCI  23
$$
  *****  WEATHER ACROSS CENTRAL AND WEST MINNESOTA  *****

CITY           SKY/WX    TMP DP  RH WIND       PRES   REMARKS
BEMIDJI        CLOUDY    29  24  80 W8        29.80S WCI  21
PARK RAPIDS    CLOUDY    31  23  72 NW7       29.80S WCI  24
WADENA         CLOUDY    28  25  86 W3        29.81S
DETROIT LAKES  MOCLDY    30  28  93 NW6       29.82S WCI  24
MOORHEAD       CLOUDY    30  27  86 VRB3      29.84F
FERGUS FALLS   CLOUDY    30  27  86 CALM      29.87S
ELBOW LAKE     CLOUDY    31  26  84 CALM      29.83F FOG
MORRIS MN      CLOUDY    30  27  86 CALM      29.82F
STAPLES        CLOUDY    30  27  86 CALM      29.81S
WHEATON        CLOUDY    30  27  86 CALM      29.86S
$$
  *****  WEATHER ELSEWHERE ACROSS MINNESOTA  *****

CITY           SKY/WX    TMP DP  RH WIND       PRES   REMARKS
DULUTH         CLOUDY    33  32  96 NW5       29.78S
INTRNTL FALLS  CLOUDY    31  27  85 SW5       29.78S
ELY            CLOUDY    32  32 100 NW3       29.77F
CLOQUET        LGT SNOW  32  30  93 W5        29.79S
BRAINERD       CLOUDY    31  25  78 CALM      29.81F
HIBBING        CLOUDY    30  28  92 W5        29.79S
ALEXANDRIA     CLOUDY    30  25  81 CALM      29.83S
SAINT CLOUD    CLOUDY    32  26  78 NW5       29.83R
MINNEAPOLIS    CLOUDY    34  28  79 W5        29.84R
$$

  *****  WEATHER ACROSS SOUTH DAKOTA  *****

CITY           SKY/WX    TMP DP  RH WIND       PRES   REMARKS
SIOUX FALLS    CLOUDY    31  30  96 SE6       29.82R
BROOKINGS      CLOUDY    30  27  88 E6        29.80S WCI  24
WATERTOWN      CLOUDY    28  26  92 E6        29.78F WCI  22
HURON          CLOUDY    31  29  92 SE3       29.80R
SISSETON         N/A     31  28  89 S3        29.82F
ABERDEEN       LGT SNOW  30  26  85 E5        29.82R FOG
MITCHELL       CLOUDY    32  29  88 SE13      29.80S WCI  22
PIERRE         CLOUDY    29  26  89 E9        29.74R WCI  20
MOBRIDGE       LGT SNOW  29  24  82 NE7       29.77R WCI  22
RAPID CITY     FOG       23  21  92 N15       29.71R VSB 3/4 WCI  10
$$

  *****  SOME WEATHER IN NEARBY STATES *****

CITY           SKY/WX    TMP DP  RH WIND       PRES   REMARKS
GLASGOW MT     CLOUDY    22  18  85 NW7       29.82R WCI  13
GREAT FALLS MT CLOUDY    19  15  84 N5        29.81R WCI  12
CHEYENNE WY    LGT SNOW  32  30  92 E7        29.52F FOG
SCOTTSBLUFF NE CLOUDY    37  28  70 N8        29.57S
OMAHA NE       CLOUDY    33  27  78 SE9       29.84R
DES MOINES IA  CLOUDY    34  28  79 E3        29.85S
DAVENPORT IA   CLOUDY    34  32  92 NW6       29.84F
CHICAGO IL     MOCLDY    37  33  85 N6        29.80R
EAU CLAIRE WI  CLOUDY    33  33 100 CALM      29.82S FOG
LA CROSSE WI   CLOUDY    36  33  89 CALM      29.84R
$$

  *****  SOME NATIONAL WEATHER *****

CITY           SKY/WX    TMP DP  RH WIND       PRES   REMARKS
LA GUARDIA NY  RAIN      38  34  85 NE28G38   29.60F FOG
RALEIGH NC     CLOUDY    47  42  83 N9G16     29.42R
ATLANTA GA     FAIR      51  44  77 NW24G31   29.67R
NEW ORLEANS LA FAIR      56  46  69 W5        29.89R
OKLAHOMA CITY  FAIR      50  32  50 SE12      29.71F
ALBUQUERQUE NM FAIR      50  24  36 SW12      29.69F
SALT LAKE CITY CLOUDY    34  29  82 W10       29.60R
LOS ANGELES CA FAIR      53  43  68 W20       29.86R
BOISE ID       CLOUDY    29  25  85 NW13      29.67R WCI  19
SEATTLE WA     FAIR      40  37  89 NW5       29.92R
$$

*** WEATHER ACROSS MANITOBA...SASKATCHEWAN AND ONTARIO ***
                ***ONTARIO***

CITY           SKY/WX    TMP DP  RH WIND       PRES   REMARKS
GERALDTON      DRZL/FOG  34  34 100 S5        29.77R VSB 1/4
THUNDER BAY    CLOUDY    34  34 100 CALM      29.80R
SIOUX LOOKOUT  LGT SNOW  34  32  93 S2        29.74S FOG
TORONTO        CLOUDY    36  30  80 E9        29.78F
BIG TROUT LK   CLOUDY    23  23 100 E3        29.79S
PICKLE LAKE    CLOUDY    28  28 100 SE2       29.75S
DRYDEN         CLOUDY    32  32 100 W8        29.74F WCI  25
KENORA         LGT SNOW  30  28  93 SW8       29.75R FOG     WCI  23
$$
                *** MANITOBA***

CITY           SKY/WX    TMP DP  RH WIND       PRES   REMARKS
BRANDON        FLURRIES  23  19  86 W14       29.73S WCI  11
DAUPHIN        LGT SNOW  27  27 100 W9        29.71R WCI  17
ISLAND LAKE    FLURRIES  32  30  93 E3        29.74
PILOT MOUND      N/A     23  19  86 W6          N/A  WCI  16
THE PAS        FLURRIES  18  14  86 N9        29.83R WCI   6
THOMPSON       FLURRIES  16  12  86 N8        29.84S WCI   5
WINNIPEG       FLURRIES  28  23  80 SW10      29.75S WCI  19
LYNN LAKE      FLURRIES   7   5  92 N6        29.88F WCI  -3
CHURCHILL      FLURRIES  16  14  93 E22G28    30.01F WCI  -2
GILLAM         LGT SNOW  19  18  93 NE10      29.85F WCI   8
$$
                ***SASKATCHEWAN***

CITY           SKY/WX    TMP DP  RH WIND       PRES   REMARKS
ESTEVAN        FLURRIES  21  19  93 W13       29.78R WCI   9
KINDERSLEY     CLOUDY    10   7  85 NW5       29.84S WCI   2
LLOYDMINSTER   FLURRIES   9   5  85 NW6       29.87R WCI  -1
PRINCE ALBERT  LGT SNOW  14  10  85 N6        29.85R WCI   5
REGINA         CLOUDY    18  12  79 NW15      29.79R WCI   3
YORKTON        CLOUDY    19  18  93 NW16      29.72S WCC1F1C2F2C3F3C4F4C5F5C6F6C7F7C8F8C9F9CaFaCbFbCcFcCdFdCe!



USA.gov is the U.S. government's official web portal to all federal, state and local government web resources and services.